GEFSCGP_500_meanwind_186.txt.gz
Wind_Speed
22 21 20 18 17 15 13 10 8 5 4 4 3 4 5 6 8 10 11 12 14 14 15 16 16 16 15 15 15 14 13 12 11 10 10 9 7 6 4 4 3 1 0 1
24 23 22 22 20 18 16 13 12 9 8 6 4 3 3 6 7 8 9 10 12 13 13 14 15 15 14 14 14 14 13 12 11 10 9 9 8 7 5 4 3 2 1 2
25 25 25 25 23 21 20 17 14 13 11 9 7 5 5 6 7 7 7 9 10 11 12 13 13 13 13 13 12 12 12 11 11 10 9 9 8 7 5 5 4 3 2 1
27 27 27 26 25 24 22 19 17 15 15 12 10 8 6 6 7 8 7 7 9 10 10 11 12 12 12 12 11 12 11 11 11 10 9 9 8 7 6 5 4 4 3 3
28 28 28 27 26 26 24 23 21 18 17 15 14 12 9 8 8 9 8 7 8 8 9 10 10 10 11 11 10 11 11 10 10 10 9 9 8 7 6 5 4 4 4 4
28 28 29 28 28 27 26 25 23 21 20 19 16 16 12 10 10 10 9 8 8 8 8 9 9 9 9 9 9 9 9 9 9 9 9 9 8 8 7 7 5 4 4 4
27 28 28 28 29 29 28 27 26 25 24 22 19 19 16 13 11 11 10 9 8 8 8 8 9 8 9 9 8 9 9 9 9 9 9 9 8 8 8 7 7 6 6 6
28 28 28 28 29 29 29 28 27 26 25 23 23 22 19 15 13 13 12 11 10 8 8 8 8 9 8 8 8 8 9 9 9 9 9 9 8 8 8 8 8 8 8 8
28 27 28 28 28 30 30 29 28 27 26 25 25 24 21 18 16 14 13 13 12 10 9 9 9 9 8 8 7 7 8 9 9 9 9 9 9 9 9 9 9 9 9 8
28 28 28 29 30 30 30 30 29 28 27 26 26 25 22 19 17 15 15 14 13 12 11 10 10 10 9 8 8 8 8 9 9 10 10 10 9 9 10 10 9 10 9 9
28 28 28 29 30 30 30 30 30 29 28 27 26 24 21 19 18 16 16 15 14 13 13 12 11 10 10 10 9 9 9 9 10 10 10 10 10 10 10 10 10 10 10 10
28 28 29 29 30 30 30 30 30 30 29 28 27 25 21 19 19 18 17 16 16 15 13 13 11 11 11 11 10 10 10 10 11 11 11 11 11 11 11 11 11 11 11 12
30 30 29 30 30 30 30 31 30 30 30 30 29 27 23 21 20 19 18 18 18 16 15 15 14 13 12 11 11 11 11 11 12 12 12 13 13 13 13 13 13 13 13 13
30 31 31 31 30 30 30 30 30 30 30 30 30 28 26 25 23 21 20 20 20 19 18 18 17 15 14 13 13 13 13 13 13 14 14 15 15 15 15 15 14 14 15 15
31 31 31 31 31 31 31 31 31 31 31 30 29 29 28 26 25 24 23 22 23 22 21 21 20 18 17 16 16 16 16 17 16 16 16 16 17 17 17 17 17 17 17 17
33 33 33 32 32 33 33 33 33 32 32 32 31 30 29 28 27 26 25 25 25 24 24 24 23 22 20 19 18 19 19 18 19 19 18 18 19 20 20 20 20 19 19 19
34 34 34 34 33 34 35 34 35 35 35 34 34 33 31 31 30 29 29 28 27 27 26 25 24 22 22 22 22 22 22 21 21 21 21 21 21 22 22 21 21 22 21 21
35 36 36 37 36 36 35 35 36 36 36 36 36 35 34 33 32 31 31 31 30 29 28 27 27 26 25 24 24 24 24 24 24 25 25 25 25 24 23 23 23 23 23 22
36 37 37 37 37 39 38 36 37 37 38 37 38 37 37 36 35 34 32 32 32 31 31 30 28 27 27 26 26 26 26 26 26 26 26 26 27 26 24 24 24 24 24 24
38 39 40 39 39 39 38 38 38 38 39 38 38 37 37 37 37 36 35 34 33 32 32 32 31 31 29 29 28 28 27 28 28 28 27 28 28 27 26 26 25 25 25 25
39 39 40 40 40 40 39 38 38 38 39 38 38 38 38 37 37 37 37 37 37 36 34 34 34 33 32 31 30 30 30 30 30 30 30 30 30 29 29 28 27 27 26 26
38 39 39 39 40 39 38 37 38 38 38 38 38 39 39 39 39 39 39 39 38 38 37 36 36 36 35 34 33 33 33 33 33 32 32 32 31 30 30 30 30 29 28 27
37 37 38 39 39 38 38 38 38 38 39 39 39 39 40 40 41 40 41 41 40 39 38 38 38 38 38 37 36 36 35 34 34 33 33 34 33 32 33 33 33 32 31 29
35 36 37 38 37 37 38 38 37 37 37 38 39 39 40 41 40 41 41 41 41 40 40 40 40 40 39 39 39 37 36 36 35 35 35 35 34 35 35 35 35 34 34 33
35 35 36 37 37 37 37 38 38 37 37 38 39 39 40 41 41 41 41 40 41 41 42 42 40 40 39 39 39 38 36 35 36 36 35 36 36 37 36 35 35 35 35 34
34 35 35 36 37 37 37 37 38 38 38 39 39 39 40 40 41 41 42 42 41 41 41 42 42 41 40 40 40 38 36 35 36 36 35 35 35 35 35 35 36 36 36 36

GEFSCGP_500_meanwind_192.txt.gz
Wind_Speed
19 18 17 17 16 15 13 11 9 8 6 4 2 3 4 5 7 7 9 11 12 13 12 12 12 11 11 12 12 12 11 10 9 9 9 8 7 6 5 5 4 3 2 1
21 20 20 20 19 17 15 13 11 10 9 7 5 4 4 5 6 6 7 9 10 11 12 11 11 11 11 11 11 11 10 10 9 9 9 8 7 7 5 4 4 4 2 1
23 23 23 21 20 19 18 16 14 13 11 10 7 6 6 5 6 6 7 8 8 10 11 11 10 10 10 10 10 10 9 9 9 9 8 8 7 7 6 5 5 4 3 2
26 27 24 23 22 21 20 19 18 15 13 11 9 8 9 7 6 7 7 7 7 8 10 10 10 10 9 9 9 9 9 9 8 8 8 7 7 7 6 6 5 4 4 4
28 28 26 25 24 23 22 21 20 18 16 14 13 10 10 10 8 8 8 8 7 8 9 9 10 10 9 9 9 9 9 8 8 8 8 8 7 6 7 7 6 5 4 4
30 29 29 28 27 25 24 23 22 21 19 18 16 14 12 11 10 9 9 9 8 8 9 9 9 9 8 9 8 8 8 8 8 8 8 7 7 7 6 6 6 6 6 5
29 29 29 29 29 28 26 23 21 20 20 20 19 17 15 13 12 11 11 10 10 9 9 10 9 9 8 8 8 8 8 8 7 7 7 7 7 7 7 6 6 6 7 7
28 28 30 30 30 29 28 25 23 20 19 18 21 20 17 15 14 14 14 13 12 11 10 11 10 9 9 8 8 8 7 7 7 7 7 7 7 7 7 7 7 7 7 7
26 27 29 29 29 29 29 27 24 23 22 20 19 20 18 18 16 15 15 15 13 12 11 11 11 10 10 9 9 9 8 8 8 8 7 7 8 8 8 8 8 8 8 8
28 28 28 28 28 29 30 28 27 25 23 22 21 20 19 19 17 16 16 16 14 14 12 11 11 11 10 10 10 10 10 10 9 8 8 8 8 8 9 9 9 10 10 10
29 28 28 28 29 28 30 30 29 26 25 23 20 19 19 19 17 16 16 16 16 15 15 14 13 13 12 12 12 12 12 11 11 10 9 9 9 9 9 9 10 11 11 12
29 29 28 29 29 29 30 29 28 27 26 26 23 21 22 20 18 17 18 17 16 16 16 16 16 15 15 15 14 14 13 13 13 12 11 10 10 11 11 10 11 12 13 13
29 30 29 27 28 30 31 31 29 28 27 26 24 23 24 23 21 20 19 19 18 18 18 18 18 18 17 17 16 15 14 13 13 13 13 12 12 12 13 13 13 14 14 14
30 30 30 26 25 28 30 30 30 29 26 26 26 25 26 25 23 22 22 22 21 20 20 21 21 21 19 19 18 17 16 15 15 15 14 14 14 14 15 15 16 17 17 17
31 31 31 31 30 29 30 30 31 31 29 27 26 27 27 27 25 25 25 24 24 23 23 23 23 23 22 21 21 19 18 18 17 17 17 16 17 17 17 18 18 19 19 19
31 32 31 31 31 31 31 31 31 31 31 30 29 29 27 27 27 26 26 26 26 26 25 25 25 25 24 23 23 22 22 21 21 20 19 20 20 20 20 20 20 21 20 20
31 31 31 30 31 31 32 33 32 32 32 31 31 31 29 29 28 27 27 28 28 28 28 27 27 27 25 25 25 25 24 24 24 23 22 22 23 23 23 22 22 22 22 23
31 30 30 29 31 32 33 33 32 33 33 33 33 32 31 30 30 29 29 30 31 31 31 30 29 27 27 27 27 27 26 26 26 25 26 25 25 25 24 24 24 25 25 26
32 31 31 30 30 31 34 33 32 32 33 34 35 34 33 32 32 33 33 33 33 34 34 33 32 30 29 30 29 29 29 29 28 28 27 27 27 27 27 27 27 27 27 28
32 32 32 32 30 30 33 33 32 32 34 35 35 35 34 33 33 35 34 33 34 34 34 34 34 33 33 33 33 33 33 32 31 30 29 29 30 30 30 30 30 29 30 29
33 33 33 32 32 32 34 33 32 33 35 35 35 35 35 35 35 35 35 34 34 34 34 34 35 35 35 35 35 35 35 35 34 34 33 32 33 32 32 32 32 31 30 29
33 33 34 33 33 34 35 34 34 34 35 35 35 36 36 37 37 37 36 36 36 35 36 37 37 37 37 37 37 37 37 37 36 36 36 36 35 34 35 34 34 34 32 31
33 34 34 35 35 36 34 34 34 34 35 35 35 36 37 37 38 38 38 38 38 38 38 39 40 40 39 39 39 39 38 38 37 37 38 38 38 37 36 36 35 35 34 32
33 34 35 35 35 35 35 35 36 35 36 36 36 37 38 38 38 39 39 39 38 39 40 41 41 41 41 41 41 40 40 39 39 40 40 41 40 40 39 37 37 35 35 33
33 33 33 34 34 34 35 35 36 37 37 37 37 37 38 38 38 38 38 39 39 40 41 42 42 42 42 41 41 41 41 41 42 42 42 42 41 40 40 39 38 37 36 35
31 32 33 33 34 35 35 35 35 36 36 37 37 36 37 38 38 38 39 39 39 39 39 41 41 42 41 41 41 42 42 42 41 42 42 41 40 40 39 39 39 38 38 37

GEFSCGP_500_meanwind_198.txt.gz
Wind_Speed
15 14 13 12 11 12 13 14 12 10 9 6 6 7 9 10 11 11 10 11 13 13 13 13 14 14 14 15 14 13 12 12 12 11 10 9 9 8 7 6 5 4 3 2
16 16 14 13 14 15 14 14 12 10 9 7 8 9 9 10 9 11 11 10 11 11 11 13 13 14 14 14 14 13 12 11 11 11 10 10 9 9 8 7 6 5 4 3
19 17 16 16 16 15 15 15 13 13 11 10 10 12 12 11 10 9 10 10 10 10 11 11 11 13 13 13 14 14 12 11 11 11 11 10 9 9 8 7 6 6 5 4
20 19 19 18 17 17 17 15 16 15 13 13 13 15 15 14 13 11 12 11 9 9 10 9 10 11 12 12 12 13 12 11 11 11 11 11 10 9 9 8 7 7 6 6
21 20 21 20 19 18 19 18 18 17 16 16 16 16 14 16 15 11 10 11 9 8 9 9 9 10 11 11 11 12 12 12 11 11 11 11 10 9 9 8 8 7 7 6
23 21 21 20 20 21 20 19 18 17 18 19 18 16 17 16 16 16 14 12 13 9 9 10 9 9 10 10 11 11 11 11 10 11 11 11 10 9 8 8 8 8 8 8
22 23 23 22 22 22 21 18 17 18 20 21 18 17 18 17 18 17 16 14 14 12 11 11 9 10 10 10 10 11 11 11 11 10 11 11 10 9 8 8 8 8 8 8
20 21 22 24 24 23 21 20 20 20 20 20 18 18 17 16 19 19 17 17 15 13 14 12 11 10 10 11 11 11 11 12 12 11 11 11 11 10 9 8 8 9 9 9
19 19 19 22 22 22 22 22 20 22 21 22 21 19 20 19 20 18 17 17 16 14 14 14 13 12 11 11 11 11 11 12 12 12 12 12 12 11 10 9 9 10 10 10
22 22 19 20 23 24 24 22 21 22 23 23 22 21 22 20 18 16 17 18 17 16 16 16 14 13 13 12 11 12 12 13 13 13 13 13 14 13 10 10 11 11 11 11
24 25 23 22 23 22 23 24 24 25 24 22 22 23 21 23 22 19 18 20 18 16 16 16 16 16 15 14 13 13 14 14 14 14 14 14 14 13 12 12 12 13 13 13
27 27 26 25 24 22 23 23 24 26 26 25 24 25 24 24 22 20 21 19 19 19 19 19 19 19 18 16 16 16 16 16 15 15 15 15 15 15 14 14 14 14 14 14
29 28 27 25 24 24 24 24 24 25 25 25 25 27 26 26 23 23 21 20 21 21 22 22 22 21 19 18 19 19 19 18 17 17 17 17 17 17 16 16 15 15 16 16
31 31 30 26 24 23 24 24 24 24 25 25 26 26 27 28 27 26 25 23 24 25 26 25 24 23 22 21 21 22 23 22 20 19 19 19 19 19 19 18 18 18 18 18
31 32 32 30 27 26 23 22 24 26 27 25 26 26 29 29 27 28 25 25 26 28 27 26 26 26 24 23 23 24 25 24 23 22 21 20 21 21 21 20 20 20 20 21
32 33 32 32 30 28 28 26 24 26 26 27 29 30 31 31 30 29 28 28 29 30 29 28 27 27 27 27 27 27 27 27 26 25 23 22 22 22 22 22 22 22 22 23
32 33 33 32 29 29 31 29 28 28 28 29 31 32 34 34 35 33 31 33 32 32 31 31 31 30 30 30 30 30 30 29 29 28 27 25 24 23 23 23 24 24 24 24
32 32 32 31 29 32 30 30 32 33 32 31 32 35 37 38 38 38 36 35 34 34 34 33 32 31 31 32 33 32 32 32 31 30 29 28 27 26 26 26 26 26 26 26
31 32 32 30 29 30 29 31 33 34 35 34 34 36 38 38 37 39 40 38 35 34 34 33 33 32 33 34 34 35 35 34 33 32 31 30 30 29 28 29 29 28 29 29
30 32 32 31 29 29 30 33 34 35 36 38 38 39 39 37 38 40 39 37 37 36 35 34 32 33 34 34 35 36 36 35 34 34 33 32 32 32 31 31 32 31 31 32
30 32 32 32 32 32 34 36 36 36 38 38 38 37 37 36 37 39 39 38 38 37 36 36 36 35 35 36 36 36 36 36 36 36 36 34 34 34 33 33 33 34 34 34
30 30 32 33 32 35 38 39 40 39 40 38 36 36 35 36 37 37 39 39 38 37 37 37 37 37 37 37 37 37 37 37 38 38 38 37 36 36 36 36 35 35 36 36
32 32 33 34 36 37 38 39 39 39 39 39 37 37 37 37 37 38 39 40 40 39 38 38 39 39 39 39 39 39 38 38 38 39 39 39 39 38 38 38 38 37 37 37
34 34 35 35 35 37 39 40 39 38 39 38 37 37 37 37 38 39 40 41 41 40 39 39 39 40 40 40 40 40 40 40 40 39 39 39 40 40 40 40 39 38 37 38
34 34 35 36 38 37 38 39 38 38 38 37 37 37 38 39 40 40 41 41 41 41 40 40 40 40 40 40 39 39 40 39 39 39 39 39 40 40 39 40 39 39 38 37
33 35 36 37 38 38 37 38 38 40 39 39 38 38 38 38 39 39 40 41 41 41 41 41 41 41 41 42 41 41 41 40 40 41 40 40 40 40 40 40 40 39 38 38

GEFSCGP_500_meanwind_204.txt.gz
Wind_Speed
21 20 17 15 14 13 12 11 8 7 9 10 8 8 8 8 7 8 8 10 11 11 11 11 11 13 14 14 14 13 13 12 12 12 12 11 10 10 9 8 6 5 3 2
23 20 17 15 15 15 13 11 11 10 10 10 10 10 9 9 8 9 9 9 10 9 9 10 10 10 11 12 12 12 11 11 11 11 11 11 10 10 9 8 7 6 5 4
23 20 19 17 17 17 15 14 14 13 12 13 13 12 11 12 10 10 11 9 9 8 7 8 8 9 9 9 10 10 10 10 10 10 10 10 9 9 8 8 7 7 6 4
23 22 22 20 19 19 17 16 15 16 16 15 15 16 13 12 13 12 11 9 9 9 8 7 7 7 8 8 8 9 9 9 9 9 9 8 8 8 8 8 7 7 6 6
23 23 23 22 20 19 18 17 18 19 19 19 18 19 17 16 16 14 11 9 9 9 9 8 7 6 6 6 6 7 8 8 8 8 7 7 7 7 7 7 7 6 6 6
22 24 24 22 20 20 19 19 19 20 21 22 21 22 19 17 17 15 13 10 10 10 9 9 8 5 5 6 5 5 6 6 6 7 7 7 6 6 7 6 6 6 6 6
23 24 24 23 22 22 22 22 22 23 23 23 21 24 22 18 17 16 14 11 12 12 11 10 8 6 5 5 6 5 5 5 6 6 6 6 6 5 6 5 5 5 6 6
23 23 23 23 23 22 22 23 25 25 25 24 22 24 22 18 17 16 14 14 13 13 12 11 10 8 7 7 6 5 5 5 5 6 6 6 6 5 5 5 5 6 6 6
23 22 22 23 23 23 23 23 24 26 26 27 25 23 21 18 17 17 16 15 15 14 14 13 11 10 9 8 8 7 7 6 6 6 6 6 6 6 6 6 6 7 7 7
23 23 23 24 25 24 24 23 24 26 27 28 26 22 20 18 18 18 18 18 16 15 14 14 13 11 10 9 9 10 10 9 8 8 8 8 8 7 7 6 7 7 7 7
25 25 23 25 26 27 25 26 26 26 27 28 27 24 21 21 20 19 18 19 17 17 17 17 15 14 12 11 11 12 12 11 10 10 10 10 10 9 9 8 9 9 9 9
27 26 25 25 26 27 28 27 28 28 28 28 29 28 24 23 22 21 21 20 20 20 19 16 16 17 16 14 14 14 13 13 13 12 12 13 13 12 12 11 11 10 10 10
29 28 27 27 28 29 30 29 29 30 30 30 31 31 27 26 25 24 23 23 23 22 22 20 19 19 19 19 18 17 16 16 15 15 15 15 15 14 14 14 14 14 13 13
31 31 31 29 28 30 32 32 32 32 32 32 31 31 30 29 27 26 25 26 25 26 27 25 23 22 22 21 19 20 20 20 19 19 18 18 17 17 16 17 17 17 16 15
33 33 32 31 30 31 31 32 33 33 33 34 33 32 31 31 30 29 27 27 27 28 28 28 25 24 24 22 22 21 22 21 22 22 21 20 20 20 18 19 20 19 18 17
35 35 34 34 33 33 33 32 33 33 34 35 34 34 34 34 34 33 32 31 31 30 29 28 28 27 26 25 24 23 23 23 25 25 23 23 22 22 21 22 22 22 21 21
37 37 36 35 34 35 36 34 35 35 36 37 38 37 36 37 36 36 34 33 31 31 30 31 30 29 28 27 26 26 24 24 26 27 26 26 25 24 24 25 24 24 24 24
36 37 36 35 34 35 34 35 36 37 37 37 37 39 40 39 39 39 37 36 34 32 33 33 32 31 31 30 29 29 28 27 27 28 28 27 27 27 27 26 26 26 25 25
36 35 35 35 36 35 34 34 35 36 37 38 39 39 38 39 39 40 38 37 36 35 36 36 34 33 33 33 32 33 33 32 30 30 30 29 29 30 29 29 29 29 28 28
35 35 35 36 36 37 36 35 35 35 37 38 40 40 39 40 40 39 39 39 38 37 37 36 36 36 36 36 36 35 35 34 33 33 32 31 31 31 32 32 31 31 31 31
36 36 37 37 38 38 37 36 37 38 39 38 39 40 40 41 42 42 42 41 40 39 37 37 37 38 37 37 38 38 37 37 37 35 33 34 34 34 35 35 34 34 34 34
36 37 37 37 38 39 37 37 38 39 40 40 40 40 41 41 42 43 43 42 41 40 40 41 39 38 39 40 40 39 38 39 39 38 36 36 36 36 36 36 36 35 35 35
36 37 37 38 38 38 38 38 39 40 40 39 40 40 41 40 40 41 42 42 42 43 42 40 39 39 39 40 41 41 40 40 39 37 37 37 37 37 36 36 36 37 36 36
36 37 37 37 38 37 37 38 39 40 40 39 39 39 39 40 41 40 40 41 42 42 42 40 40 40 39 39 39 39 38 38 37 36 37 36 36 36 36 35 36 36 36 36
34 35 35 36 36 36 36 37 38 38 38 38 38 38 38 39 40 41 41 40 40 41 42 42 42 41 41 40 39 38 38 38 37 37 37 37 37 37 37 37 37 37 35 35
32 33 35 36 36 37 38 37 37 37 38 38 39 39 39 38 36 35 36 38 40 42 42 42 41 41 40 39 38 38 39 39 38 38 38 38 38 37 37 37 37 36 36 36

GEFSCGP_500_meanwind_210.txt.gz
Wind_Speed
26 24 22 20 19 19 17 16 13 10 9 9 7 5 4 6 7 7 8 8 9 10 11 12 12 13 13 12 11 10 10 10 9 9 8 8 8 7 6 5 4 3 1 1
26 25 23 23 21 21 20 18 16 13 13 12 11 9 7 7 7 7 7 8 8 8 9 10 11 11 11 10 10 10 8 9 8 7 7 7 7 7 7 6 5 4 2 1
27 25 26 25 23 23 22 20 18 16 16 15 15 13 10 8 7 7 7 8 7 7 6 7 9 10 9 9 8 8 7 7 7 6 6 6 6 6 6 5 4 4 3 3
27 27 28 27 25 25 23 22 21 20 19 19 18 16 12 11 9 8 7 7 7 7 7 7 8 9 8 8 7 6 6 5 5 5 5 5 4 4 4 4 4 4 3 3
26 27 28 27 26 26 25 24 24 23 23 22 20 19 15 14 13 11 9 8 8 8 8 8 8 8 8 7 7 6 5 5 4 5 4 3 3 3 3 3 3 3 3 3
26 27 28 27 27 27 27 25 25 26 25 24 21 21 18 16 16 14 12 10 9 9 9 9 9 9 8 7 7 6 6 6 5 4 5 4 4 4 4 4 3 3 3 4
26 27 28 28 28 28 28 27 26 27 26 25 23 24 20 18 18 17 16 13 12 12 12 10 10 11 10 9 9 9 8 7 6 6 5 5 6 5 5 5 5 5 5 5
26 26 27 28 28 28 28 28 28 28 28 26 25 25 22 20 20 19 18 16 14 14 13 12 12 13 12 11 12 11 10 9 8 7 7 7 7 6 6 6 7 7 7 7
27 26 26 28 28 28 28 29 29 29 28 29 29 28 25 22 21 20 18 17 16 15 13 13 13 14 14 14 13 13 12 12 11 10 9 9 8 9 9 8 8 8 8 8
27 27 27 28 29 29 29 29 28 29 30 30 30 28 25 23 21 20 19 18 16 16 15 15 15 16 16 15 15 14 14 14 14 13 13 11 11 11 11 11 10 10 10 10
28 27 27 28 30 30 30 30 30 31 31 32 31 29 26 25 22 21 20 18 17 17 16 17 18 18 17 17 17 16 17 16 16 16 15 14 14 14 14 14 14 13 12 13
29 29 28 29 29 31 32 32 31 31 31 32 33 31 27 26 25 22 21 20 18 18 18 18 19 20 19 19 18 18 19 20 19 18 18 17 18 19 18 17 16 16 15 15
30 30 30 30 31 32 33 33 33 33 33 33 33 31 28 27 26 24 22 21 21 21 21 21 22 22 22 22 21 21 21 21 20 21 20 19 20 21 21 21 20 19 18 18
32 33 33 32 32 32 34 34 34 34 35 34 33 31 29 28 27 26 25 24 23 22 23 23 24 23 23 23 23 23 24 24 23 22 21 21 21 22 24 24 23 23 21 21
34 35 34 33 33 34 35 35 35 35 35 35 34 33 31 29 28 27 26 26 26 25 25 25 25 26 26 26 25 25 25 24 23 23 23 23 23 23 24 25 25 24 23 22
36 36 35 35 34 35 36 36 36 35 34 35 35 34 32 32 30 28 27 27 27 27 27 27 27 27 28 28 27 26 25 26 26 26 26 26 27 26 26 26 26 26 25 24
37 38 38 37 37 37 38 37 36 36 35 35 35 34 33 33 31 30 29 28 29 29 28 28 28 28 29 30 30 29 28 28 28 29 29 28 29 28 28 27 27 27 27 26
37 37 39 38 37 39 38 36 36 36 36 35 35 35 35 35 34 32 32 31 30 31 30 31 31 31 31 32 31 31 31 31 30 30 30 30 30 30 30 29 29 30 30 30
37 37 37 37 37 38 37 36 34 34 35 34 34 34 34 34 35 34 34 33 33 33 34 34 34 34 34 34 33 33 33 32 31 31 30 30 31 31 32 32 32 32 32 32
36 36 37 36 37 37 35 34 33 34 35 34 34 34 35 35 35 34 35 35 35 35 35 37 37 37 36 36 34 34 34 33 33 33 33 32 32 32 32 34 34 34 33 33
35 35 36 36 37 37 36 34 33 34 34 34 34 35 35 36 36 36 36 36 36 36 37 38 39 39 38 37 37 37 36 35 35 35 34 34 34 34 35 35 35 35 34 35
34 35 36 36 37 37 36 35 34 35 35 34 34 35 35 36 36 37 38 38 38 39 39 39 39 40 40 40 40 40 38 36 35 36 37 37 37 38 38 37 36 37 36 36
34 34 35 35 35 35 36 36 36 36 36 37 37 36 36 36 37 37 38 38 39 39 40 40 40 40 41 41 40 40 38 38 38 38 38 39 38 39 39 38 37 36 36 37
33 33 34 34 34 34 35 36 36 37 37 37 37 37 37 36 37 37 38 38 38 38 40 41 42 41 41 41 41 41 40 40 40 40 39 38 38 38 38 38 37 37 37 38
32 32 33 33 33 34 34 34 35 35 35 36 37 38 38 37 37 37 37 37 37 38 40 41 41 41 41 42 42 42 42 42 41 41 41 39 39 37 37 36 37 38 38 39
30 31 32 32 32 33 33 33 33 33 34 35 36 36 37 37 37 37 37 38 38 38 39 40 40 41 40 40 41 41 42 42 41 40 40 39 38 37 37 38 38 38 38 37

GEFSCGP_500_meanwind_216.txt.gz
Wind_Speed
19 19 19 18 17 16 15 13 12 12 10 8 6 5 5 6 6 6 6 7 8 8 9 9 9 10 10 10 10 9 9 8 7 6 4 4 3 4 4 3 2 2 1 1
21 20 20 20 19 17 16 15 14 14 13 11 9 8 7 7 6 6 6 6 6 7 8 8 8 8 9 9 9 9 8 7 6 6 5 3 3 2 2 2 1 1 0 0
22 21 22 22 21 19 17 16 16 16 15 13 12 10 9 8 7 6 6 7 6 6 6 6 6 7 7 8 7 7 7 7 6 5 5 4 3 2 1 1 0 1 1 1
23 23 24 23 23 21 19 18 18 17 16 15 14 12 11 10 9 8 8 8 7 7 7 7 6 7 7 7 7 6 7 7 6 5 4 4 3 2 2 2 2 2 2 3
24 24 24 23 23 22 22 21 19 18 17 17 16 14 11 12 11 10 10 10 9 9 8 8 7 7 7 7 7 7 7 7 6 5 4 4 3 3 3 3 3 3 3 4
24 25 24 24 23 24 23 23 22 20 18 19 17 16 14 13 12 11 12 12 11 11 10 10 9 9 9 8 8 8 8 8 8 7 6 5 5 5 5 4 4 5 5 5
24 24 24 25 24 25 25 23 20 19 19 18 18 17 15 14 13 12 13 14 14 14 14 13 12 11 11 11 10 10 10 9 8 7 8 8 7 7 7 7 7 7 7 7
23 24 25 25 25 25 25 24 22 20 19 18 20 19 16 15 14 14 14 15 16 16 16 15 14 14 13 13 13 13 12 11 10 9 10 10 9 10 9 10 10 9 9 9
24 25 25 25 26 27 26 26 24 23 22 20 20 20 19 17 15 15 16 17 16 17 17 17 17 16 15 15 15 15 14 13 12 12 12 12 12 12 12 12 12 12 12 12
25 26 25 26 27 29 29 27 26 25 23 23 21 20 19 18 17 17 17 18 17 17 18 19 19 18 17 17 16 16 16 14 14 14 15 14 15 15 14 14 15 15 15 14
26 26 26 27 28 28 29 29 29 27 26 24 22 21 21 21 19 18 18 18 18 18 19 19 18 18 18 19 19 19 19 19 19 17 17 18 17 17 17 17 17 17 17 17
27 27 26 27 28 28 29 29 29 28 29 27 25 24 24 23 22 20 19 19 19 19 19 20 20 21 21 20 20 20 20 21 22 21 20 20 20 20 21 21 20 20 19 18
28 28 27 26 27 29 30 30 30 29 29 28 25 25 26 25 24 23 22 21 20 20 21 21 21 21 22 23 23 22 22 23 23 23 22 23 23 23 24 24 23 22 22 20
30 30 29 27 27 29 30 31 31 30 30 29 28 27 28 27 26 25 24 23 22 22 22 22 22 23 23 24 25 24 24 24 25 25 24 25 25 25 25 24 23 23 23 23
31 32 32 32 31 31 31 32 32 33 32 32 30 30 31 30 29 27 26 25 24 24 24 23 23 24 24 25 25 26 26 26 26 26 26 26 27 28 28 27 25 25 25 26
33 32 32 32 32 33 34 34 34 34 34 34 34 34 32 31 31 29 28 27 26 26 26 26 26 26 26 26 27 28 28 27 27 27 27 28 29 30 29 28 27 27 27 27
33 32 32 31 32 32 34 34 34 35 35 35 35 35 33 33 32 31 30 30 29 29 28 28 29 28 28 28 29 30 31 30 29 29 29 30 30 31 31 30 28 28 28 29
34 33 33 31 32 33 33 34 35 35 35 36 36 35 35 34 33 32 32 31 30 31 31 32 32 31 31 31 31 31 32 32 32 31 31 31 32 33 32 31 30 30 30 30
34 34 34 33 33 33 34 33 33 34 35 34 35 35 35 34 34 33 32 32 32 32 32 32 32 33 33 33 32 33 33 33 33 33 33 33 33 33 33 32 32 33 34 34
33 33 34 35 34 33 33 33 33 34 35 34 34 34 33 33 33 33 33 33 34 33 33 33 33 33 33 33 34 34 35 35 35 35 36 36 36 35 34 34 33 34 35 35
33 33 34 34 34 34 35 34 33 33 34 34 34 34 33 34 34 33 33 34 34 35 35 35 35 35 35 35 36 36 36 37 37 38 39 39 38 37 37 35 35 36 37 37
33 34 34 35 35 35 35 34 34 34 34 33 32 33 33 33 33 34 35 34 35 36 36 36 36 36 36 37 37 37 38 38 39 39 40 40 39 39 38 37 36 37 38 39
34 34 35 36 36 36 34 33 32 32 32 32 32 32 32 33 33 34 35 35 35 36 36 36 37 37 37 38 38 38 39 39 39 39 40 40 39 39 38 37 37 38 39 39
33 34 34 35 35 34 33 32 32 32 32 32 32 32 33 33 33 34 34 35 35 35 36 37 38 38 39 39 39 39 39 39 39 40 40 40 39 39 39 39 38 38 38 38
31 31 32 33 33 33 32 31 31 31 31 32 32 32 32 32 33 33 35 35 36 36 37 37 38 39 40 40 40 40 40 40 40 40 40 39 39 38 39 40 39 38 37 38
29 30 31 31 31 31 31 31 30 30 30 31 31 31 31 31 32 33 34 35 35 35 35 36 37 38 38 39 39 40 40 40 39 38 38 39 39 38 38 38 39 39 39 38

GEFSCGP_500_meanwind_222.txt.gz
Wind_Speed
14 14 13 13 13 12 11 12 12 9 9 10 10 10 10 11 10 10 10 9 8 9 8 9 10 10 10 10 10 10 10 9 9 8 7 6 6 5 4 3 3 2 2 2
15 14 12 14 15 15 13 14 12 9 11 12 12 12 13 12 10 10 11 10 9 8 8 8 8 9 10 10 10 10 9 9 9 8 7 6 5 5 4 3 4 3 2 2
15 13 14 16 16 16 15 16 15 13 14 13 14 13 14 14 12 11 11 12 11 9 9 8 8 8 8 9 10 10 10 9 9 8 8 7 6 5 4 4 4 3 3 3
15 15 17 18 17 17 17 15 16 15 14 15 15 17 17 16 16 13 13 12 12 11 10 9 8 8 7 8 9 10 10 9 9 9 8 8 7 6 5 4 4 4 4 4
16 17 19 19 19 18 17 16 17 16 16 17 16 17 16 15 16 15 14 13 12 13 12 11 9 8 8 9 9 9 10 9 9 9 9 8 7 7 7 5 5 5 5 5
18 18 19 19 20 19 18 18 18 17 15 18 17 17 16 16 17 17 15 15 15 14 14 13 11 10 10 10 10 9 10 10 11 10 10 9 8 8 7 7 6 6 6 7
18 19 20 19 19 19 18 18 17 17 18 19 16 17 19 18 18 17 16 17 18 17 16 15 13 12 11 11 11 10 10 10 10 10 10 10 9 9 9 8 8 8 8 8
18 19 20 21 21 20 19 19 19 19 19 19 18 19 19 20 18 18 18 19 19 18 17 16 15 14 14 13 13 12 11 11 11 11 11 11 11 11 11 10 11 11 10 10
19 20 20 22 21 22 21 20 19 21 22 22 20 20 21 20 19 19 19 19 18 17 19 18 17 17 17 16 15 14 13 13 13 13 13 12 12 12 13 13 13 13 13 13
23 22 20 21 23 23 23 22 21 22 24 23 21 22 23 23 22 22 20 19 19 19 20 20 20 19 19 18 18 17 15 15 14 15 15 15 15 15 16 16 15 15 15 15
25 26 23 23 24 23 23 24 25 25 24 23 23 24 24 24 23 22 21 20 21 20 21 23 22 21 19 18 18 17 17 17 16 16 17 17 17 17 18 18 18 17 18 18
27 28 27 26 25 24 24 25 25 26 26 25 24 26 25 25 25 25 25 22 20 21 23 24 22 21 21 21 21 19 19 19 19 18 18 19 19 19 20 20 20 19 20 20
29 29 28 25 24 26 26 26 27 26 26 26 26 28 28 29 28 27 26 23 22 23 23 24 24 23 23 23 22 22 21 21 21 21 20 20 21 21 22 22 22 22 23 23
32 32 30 27 24 24 27 27 27 27 28 28 28 29 30 31 30 29 28 25 25 25 25 25 26 26 26 25 24 25 24 23 23 23 23 23 23 23 24 24 24 25 25 25
33 33 33 32 29 28 28 27 27 29 30 30 29 30 31 33 33 31 28 28 26 27 28 27 28 28 28 27 26 26 27 26 26 26 25 25 26 27 26 26 26 27 28 27
34 34 34 34 32 30 30 30 29 29 30 30 31 32 32 33 34 34 32 31 30 29 30 29 30 30 30 29 28 28 28 28 28 28 28 28 27 28 28 28 28 28 29 28
33 35 34 34 32 32 32 31 31 31 30 31 32 33 34 36 35 35 34 32 31 31 30 31 31 31 31 31 30 30 31 30 30 30 30 30 30 29 29 29 29 30 30 29
34 35 35 34 33 35 33 32 32 33 33 34 36 36 37 39 38 37 36 35 33 32 32 32 31 32 32 33 33 33 32 33 32 32 32 33 33 31 31 31 32 32 32 32
33 33 34 34 33 33 34 34 33 33 34 34 36 37 38 39 39 39 38 37 36 35 34 34 34 33 34 34 34 35 35 36 34 33 33 33 33 33 34 34 34 34 34 34
33 33 34 34 34 34 35 33 32 32 36 34 36 37 37 38 39 39 38 37 37 36 36 37 36 34 35 35 35 36 36 36 36 35 35 35 35 36 36 36 35 36 36 35
31 32 34 35 36 36 35 35 33 34 36 35 35 36 36 37 38 38 37 37 37 36 36 36 36 35 35 36 37 37 37 37 37 37 37 37 37 38 38 38 37 37 38 38
32 32 34 35 37 37 35 36 36 36 36 37 37 37 37 36 37 37 37 37 37 37 37 36 37 37 37 38 38 38 38 38 38 39 39 38 39 39 39 39 39 38 37 39
33 33 33 35 36 36 36 36 37 38 38 37 37 37 37 37 37 37 37 37 38 38 37 37 36 36 37 38 39 39 39 40 40 40 40 40 40 39 39 40 39 40 39 38
35 35 35 36 36 35 36 36 37 37 37 37 38 38 38 37 37 36 36 36 36 36 36 36 36 36 37 38 39 39 40 40 40 40 40 41 40 40 40 40 40 41 40 39
35 37 36 36 33 35 36 37 37 37 34 34 35 36 36 36 35 35 34 35 35 36 35 35 36 37 37 38 39 40 40 40 41 41 41 41 42 42 42 41 41 41 41 40
33 36 37 35 34 35 34 34 34 35 35 34 34 34 35 35 34 34 34 33 34 34 35 36 37 38 38 38 38 39 39 40 41 41 41 42 42 42 43 42 42 41 41 41

GEFSCGP_500_meanwind_228.txt.gz
Wind_Speed
18 19 18 16 14 12 9 6 5 5 6 8 7 9 10 10 9 8 9 10 9 8 9 9 9 9 9 9 9 9 9 9 9 8 8 8 7 7 6 6 5 4 4 3
18 17 17 17 16 14 11 10 8 8 8 10 10 11 11 10 9 8 9 9 9 8 7 8 7 7 8 7 7 8 8 8 7 7 7 7 7 6 6 5 4 3 3 2
17 15 17 18 17 15 14 12 11 11 11 12 13 13 13 12 12 11 9 9 9 8 7 6 6 6 7 6 6 6 6 7 6 5 5 5 5 5 5 4 3 2 1 1
17 17 18 18 18 17 15 14 14 14 15 14 14 16 15 15 14 13 12 10 10 8 7 7 5 5 5 5 5 5 5 5 5 4 3 3 3 4 3 3 2 1 1 1
17 17 18 17 16 17 16 16 16 16 17 17 18 18 16 16 16 15 14 13 12 11 9 8 6 5 5 5 5 5 5 4 4 3 2 1 2 2 2 2 2 2 2 3
17 18 17 17 16 16 16 18 18 18 19 19 17 19 17 16 16 16 17 16 14 12 11 9 8 8 8 7 6 6 6 5 4 3 3 3 3 2 2 2 3 3 3 4
17 18 18 19 18 17 18 19 20 21 20 18 18 20 18 16 15 16 17 16 14 13 12 12 11 11 10 8 7 7 6 5 5 4 4 4 4 3 3 3 4 4 4 5
19 19 20 19 19 18 19 21 22 22 21 19 19 20 17 16 16 15 15 16 13 14 15 14 13 12 11 10 9 9 7 7 7 6 6 5 6 6 6 6 5 5 5 6
20 19 19 20 20 20 20 22 23 24 22 22 22 21 19 18 17 16 16 17 16 16 16 14 14 13 12 11 10 10 10 9 9 9 9 8 8 8 7 7 7 7 7 7
22 21 20 20 22 22 22 22 24 27 26 26 25 23 19 19 18 17 17 18 17 16 17 16 14 15 15 13 12 12 12 12 12 12 12 11 11 10 10 9 9 10 10 10
24 25 23 23 23 24 25 25 25 26 28 28 28 26 23 22 20 20 19 20 19 18 18 18 17 15 16 16 16 15 14 15 15 15 15 15 14 14 13 13 12 12 13 13
27 27 27 25 25 26 27 28 27 28 29 30 30 30 27 25 23 22 22 22 22 21 22 21 20 18 18 19 18 17 17 17 18 18 18 18 17 17 16 15 15 15 15 15
29 30 30 29 29 29 30 30 30 31 32 33 32 31 29 29 27 25 25 24 24 25 24 23 22 20 20 20 20 20 19 20 20 20 19 19 19 18 17 17 17 17 18 18
31 32 33 33 32 32 33 32 32 32 33 34 33 33 31 29 29 29 27 26 25 26 26 25 24 24 23 21 21 22 21 21 22 22 21 22 21 20 20 20 19 20 20 21
33 34 34 33 33 34 35 35 34 34 35 35 33 34 32 30 29 29 29 29 29 28 28 28 27 26 25 24 23 23 24 23 23 24 24 23 23 23 22 22 22 22 22 23
34 35 35 34 34 36 36 35 35 35 35 34 34 34 31 31 31 30 31 31 31 30 30 30 29 28 27 27 25 25 26 26 26 26 25 24 24 25 24 25 25 25 25 25
34 35 35 35 35 37 37 35 34 35 36 35 35 34 34 34 34 33 32 32 31 31 31 31 32 32 30 30 29 28 27 28 27 27 27 28 27 27 28 28 28 29 29 28
33 34 35 35 35 38 38 37 37 36 36 36 35 34 34 36 36 34 34 34 34 34 34 33 32 32 31 31 31 30 29 28 28 29 30 30 31 31 31 31 31 31 31 30
34 34 35 35 36 37 37 36 37 38 38 38 38 37 36 37 38 37 37 37 36 36 36 35 34 32 32 32 31 31 30 29 29 30 30 31 32 32 32 32 32 32 32 32
33 34 35 35 37 37 35 35 37 37 39 37 38 38 38 38 38 37 37 38 37 37 36 36 34 33 34 33 33 31 31 31 31 31 31 32 32 32 33 33 33 33 33 34
32 33 34 35 36 37 36 37 38 38 39 38 38 38 39 40 39 38 37 37 38 38 38 37 36 36 36 35 34 33 33 33 33 32 33 33 34 34 35 35 35 35 34 35
32 32 33 34 37 37 37 37 37 38 38 38 38 38 38 39 39 38 37 36 36 36 37 37 36 35 36 35 35 35 35 35 34 34 35 35 36 36 36 36 36 35 35 35
34 34 35 36 37 37 37 37 37 37 39 38 38 37 37 37 38 36 36 35 34 35 36 36 37 35 36 35 35 36 36 35 35 36 36 36 37 37 37 37 37 36 36 36
36 36 35 36 36 36 37 38 38 39 38 38 37 37 36 36 37 37 37 36 35 35 35 36 36 35 34 35 35 36 36 37 36 37 37 37 37 37 37 38 37 37 37 37
34 35 35 36 35 35 35 36 37 37 37 38 38 38 37 35 35 36 36 36 36 35 35 36 36 36 34 34 35 35 36 36 37 37 37 37 37 37 37 37 38 38 37 37
31 34 35 34 34 34 33 34 36 36 36 36 36 37 37 36 35 34 35 36 35 34 35 35 36 35 35 34 35 36 36 36 37 37 37 37 37 37 37 37 37 38 37 37

GEFSCGP_500_meanwind_234.txt.gz
Wind_Speed
20 19 17 17 18 17 17 14 12 11 11 10 8 5 4 4 6 6 6 6 6 6 6 6 6 6 7 6 4 5 5 5 5 5 5 4 4 4 4 4 4 4 4 4
20 19 18 18 19 18 18 17 15 14 14 14 12 9 7 6 6 6 6 5 4 4 5 6 6 5 5 5 4 3 3 3 3 3 3 3 3 4 4 3 3 3 3 4
20 18 19 20 20 20 19 18 17 17 17 16 15 12 10 9 7 7 7 6 5 5 5 6 5 5 4 5 4 3 2 2 1 1 1 1 1 3 3 2 2 3 4 4
21 21 21 21 21 21 20 19 18 19 19 19 18 16 12 11 10 9 9 9 8 8 7 7 6 5 5 6 5 4 3 2 2 1 1 1 2 2 2 3 3 4 4 4
21 22 23 22 22 22 21 22 21 21 21 21 19 18 13 12 12 10 10 10 10 9 9 8 7 7 7 7 6 6 4 4 4 4 3 3 4 4 4 4 4 5 6 6
21 22 23 23 23 24 23 24 24 23 23 22 20 20 17 14 14 13 12 12 12 11 9 8 7 7 8 8 7 7 6 5 5 5 5 5 6 5 5 5 6 7 7 8
22 23 23 23 24 24 24 25 25 25 25 23 21 22 20 17 17 15 14 13 13 11 10 9 8 8 9 9 9 9 8 7 7 6 7 7 7 7 7 7 8 8 8 9
23 22 22 23 24 24 25 25 26 27 26 24 24 24 22 20 20 18 16 15 14 13 11 10 10 10 10 10 11 10 9 9 10 9 9 9 9 9 9 9 8 9 10 10
24 23 22 23 24 25 26 26 26 28 28 27 26 24 22 22 22 20 18 17 16 15 13 12 11 10 11 12 12 12 12 12 11 11 12 11 11 11 11 11 11 10 11 12
26 25 24 24 25 26 26 26 28 30 30 29 27 25 23 22 23 22 20 19 17 16 14 13 14 13 13 13 13 13 14 13 13 14 14 13 12 12 12 13 14 14 15 15
28 28 26 27 27 27 28 28 29 30 31 31 30 27 23 23 23 23 21 19 19 18 16 16 16 16 15 14 14 14 15 15 15 15 16 16 15 14 14 15 15 16 17 17
28 29 29 29 29 28 30 30 30 31 31 32 32 29 25 24 23 24 24 22 21 19 18 17 18 18 18 17 17 18 17 17 16 16 17 18 17 17 17 17 17 18 18 19
29 30 30 30 31 31 32 32 32 33 33 33 33 31 27 27 25 25 25 25 24 23 22 20 20 20 21 20 21 21 20 19 19 19 19 19 20 20 19 19 19 20 20 21
32 33 33 32 32 33 34 34 34 34 35 35 35 32 30 29 28 27 27 27 26 26 25 24 23 22 22 22 22 23 22 21 21 21 21 20 21 21 21 22 22 22 22 21
35 35 35 34 34 35 35 35 35 36 37 38 36 35 32 32 31 30 29 29 29 28 27 27 26 24 23 23 24 24 24 23 23 23 22 22 22 23 23 23 24 24 24 23
37 37 37 36 35 35 35 36 36 36 36 37 37 36 34 33 32 31 31 30 30 29 29 29 29 27 26 26 25 26 26 25 25 25 24 24 25 25 26 26 26 27 26 26
38 38 38 37 36 36 36 35 35 36 36 37 38 37 35 34 33 32 32 32 32 31 30 31 31 31 30 29 29 29 29 28 27 27 27 28 28 28 28 28 29 29 29 29
38 38 38 37 36 38 36 35 35 36 36 38 39 38 37 36 34 34 34 34 33 33 33 33 33 32 32 32 32 31 31 31 30 30 30 31 32 31 30 30 30 30 30 31
36 37 37 38 38 38 36 35 36 36 37 37 38 38 37 37 37 36 36 36 35 35 35 35 35 34 34 34 33 33 32 32 32 32 33 33 33 32 31 30 29 30 32 32
35 35 36 37 37 37 35 35 36 36 36 36 37 37 37 37 37 36 37 38 38 37 37 37 36 36 35 35 35 35 34 35 34 35 35 34 34 33 31 31 31 32 32 33
34 34 35 36 36 36 36 36 36 37 36 36 36 37 36 36 37 36 37 37 38 38 38 37 37 36 36 35 35 35 35 35 35 34 34 34 33 31 31 31 32 33 34 34
33 34 34 35 36 36 36 37 37 37 37 36 37 37 36 36 37 37 37 37 37 37 36 36 35 36 36 36 35 35 36 36 35 34 34 33 33 32 32 32 33 34 34 35
32 32 33 35 35 35 35 36 37 37 37 37 37 36 36 37 37 36 36 36 37 37 36 36 35 35 36 36 36 36 36 35 35 35 34 35 34 34 34 34 34 35 35 35
33 33 34 34 33 34 35 36 37 37 37 37 37 37 37 37 36 36 36 36 36 36 36 36 35 35 35 36 36 36 36 36 36 35 35 35 35 35 35 35 36 37 37 37
31 33 33 34 34 35 35 35 36 37 38 38 38 37 37 37 37 37 37 37 37 37 36 36 36 36 36 36 36 36 37 36 35 35 36 36 36 36 37 38 38 39 39 39
30 32 32 32 33 34 34 35 36 37 37 37 36 37 37 37 37 37 37 36 36 36 36 35 35 36 37 36 35 35 34 34 34 34 34 36 37 37 38 39 39 40 41 40

GEFSCGP_500_meanwind_240.txt.gz
Wind_Speed
15 16 15 15 15 14 13 13 12 11 10 8 7 6 6 5 5 4 5 5 6 7 7 6 6 5 5 4 3 4 3 2 2 2 2 2 3 3 4 4 4 4 5 5
15 16 16 17 17 16 15 14 13 13 13 11 10 9 8 7 6 5 5 5 5 6 6 6 6 6 5 5 4 3 3 2 1 1 0 0 1 2 3 3 3 4 4 5
17 17 17 17 17 16 16 16 15 16 15 14 12 10 10 9 8 7 6 6 6 6 6 6 6 6 6 5 5 4 3 3 2 2 2 2 2 3 3 3 4 4 5 5
18 19 18 18 18 17 17 18 18 17 16 14 14 12 12 11 9 9 8 8 8 8 7 7 7 6 6 6 6 5 5 5 5 4 4 4 4 4 4 4 5 5 6 6
18 19 19 19 19 19 19 19 19 19 18 17 16 15 14 14 12 10 10 9 9 9 8 8 7 7 8 8 7 7 6 6 6 6 6 5 5 6 6 6 6 6 7 7
18 19 20 20 20 21 20 20 20 20 19 20 18 17 15 15 14 12 12 12 11 11 11 10 9 9 9 9 9 8 8 8 8 8 8 8 7 8 8 8 8 8 8 8
19 20 20 20 21 21 20 19 19 19 19 20 19 19 17 17 16 15 15 15 14 13 12 12 11 12 11 11 10 10 9 9 9 9 10 9 9 9 10 10 10 10 10 10
19 20 21 21 21 21 21 20 19 18 18 19 21 21 19 18 17 16 16 16 15 15 14 14 13 13 12 12 12 11 11 11 11 11 11 11 12 11 12 12 12 12 12 12
20 22 22 22 21 22 22 22 21 21 21 21 21 21 20 20 19 18 18 18 17 17 16 16 15 15 14 14 14 13 12 12 12 13 13 12 13 13 14 14 14 13 13 13
23 23 23 23 23 23 23 22 22 22 22 22 22 22 21 21 19 19 20 20 19 19 18 18 17 17 17 16 15 14 14 13 14 15 15 14 14 14 15 15 14 15 15 15
25 24 24 25 25 24 25 25 25 25 25 23 22 21 21 21 20 19 19 20 19 20 20 20 19 18 18 18 17 16 16 15 16 16 16 16 16 16 15 15 16 17 17 17
26 26 26 27 27 27 27 27 27 27 27 26 25 24 23 22 21 20 20 21 21 22 22 22 22 21 20 20 19 18 18 18 18 18 18 18 18 18 18 17 18 19 19 19
27 27 26 25 27 30 30 29 29 29 29 28 27 26 26 25 24 22 22 22 23 23 24 24 24 24 23 22 21 20 20 20 20 20 20 20 20 20 20 19 20 21 21 22
28 28 27 25 25 28 30 30 31 31 30 30 30 28 27 27 26 25 25 24 25 25 26 26 26 25 25 23 23 22 22 22 22 22 22 22 22 22 22 22 23 23 24 24
30 31 30 30 30 30 31 31 31 32 33 31 30 30 29 30 29 28 27 27 26 27 27 28 28 28 27 26 25 24 24 23 23 24 24 24 24 24 24 24 25 26 27 27
31 32 31 31 31 31 31 31 32 32 33 33 32 31 29 30 30 30 30 30 29 29 29 29 30 30 30 28 27 26 26 26 26 26 26 27 27 26 27 27 27 28 29 30
32 32 32 31 32 32 33 32 32 33 33 33 33 32 32 31 31 31 31 32 32 32 30 30 30 31 31 30 30 29 29 28 29 29 29 29 28 28 29 29 30 31 31 32
32 32 32 32 32 33 32 32 32 33 33 33 34 34 33 32 31 31 32 32 33 33 32 32 32 32 33 32 32 31 31 31 31 31 31 31 31 30 31 31 32 32 32 33
32 32 32 32 32 32 32 32 32 32 32 32 33 33 33 32 32 32 32 32 32 33 33 33 34 34 34 34 34 33 33 33 33 33 33 33 33 34 34 33 33 33 33 34
30 31 31 31 31 31 32 32 31 31 32 32 32 33 32 32 32 33 33 33 33 34 34 34 34 35 35 35 34 35 35 35 35 34 34 35 35 35 35 35 35 34 35 34
29 30 31 31 32 32 32 32 30 31 33 33 33 33 33 32 33 33 34 34 35 35 35 35 34 34 35 35 35 36 37 37 36 36 36 36 37 37 37 37 37 36 36 37
29 30 31 31 31 32 34 33 33 33 33 33 33 32 32 32 32 33 33 34 34 35 35 35 35 35 35 35 36 37 37 37 37 38 37 37 38 39 39 39 39 39 38 38
29 29 30 31 32 32 33 34 33 33 33 33 34 33 32 32 32 33 33 33 34 34 35 36 36 36 36 36 37 38 38 38 39 39 39 38 38 39 39 39 39 39 39 38
28 28 29 30 30 30 31 33 33 32 32 33 34 33 33 33 32 33 33 33 33 34 34 35 35 35 36 36 37 38 38 38 39 39 39 38 38 39 39 39 38 38 38 37
28 28 28 29 30 30 31 32 32 32 32 32 32 33 32 33 33 33 33 33 34 34 34 34 34 35 35 36 37 37 38 38 38 38 38 38 39 38 38 39 39 38 37 36
27 28 28 28 29 29 29 31 32 32 32 32 33 33 33 33 32 32 32 32 32 33 34 34 34 34 35 36 36 37 37 37 38 38 38 38 38 38 38 37 38 38 37 37

GEFSCGP_500_meanwind_246.txt.gz
Wind_Speed
11 11 11 10 10 11 11 10 9 9 10 9 9 10 13 14 13 10 10 9 10 10 9 9 9 9 9 9 8 8 7 6 6 5 5 3 3 2 2 1 1 2 3 3
11 11 11 12 13 14 15 12 10 12 12 11 11 12 12 14 14 12 11 11 11 11 9 9 10 10 9 8 8 7 7 6 6 5 4 4 3 2 1 1 1 2 2 3
10 10 12 12 14 16 16 14 13 14 14 12 12 14 14 14 14 14 13 13 12 12 10 9 9 9 9 8 7 7 7 7 7 6 5 4 4 4 3 3 3 3 2 2
12 12 14 14 15 15 15 15 15 15 15 14 14 17 17 17 15 14 14 13 13 13 11 11 10 10 9 8 8 8 8 8 7 7 6 6 6 5 4 4 5 5 4 5
13 15 16 15 16 16 17 17 18 17 17 17 17 19 19 18 15 13 13 13 14 13 13 12 11 11 10 10 10 9 9 9 8 8 7 7 7 7 6 6 6 6 6 6
15 15 16 16 17 18 17 16 16 17 18 20 18 20 22 20 18 17 15 13 15 15 16 15 14 13 12 12 12 12 11 11 10 10 9 9 8 8 8 8 8 8 8 8
16 17 17 17 17 17 16 15 16 17 19 19 16 19 22 21 21 19 17 15 16 17 18 18 16 15 14 14 14 13 12 12 11 11 10 10 10 10 10 10 10 10 10 10
16 17 17 17 18 17 17 17 18 18 18 17 15 18 18 19 21 21 18 17 19 18 19 19 18 16 15 15 14 14 14 13 12 12 12 11 11 11 11 11 12 12 12 12
17 17 18 19 19 19 19 20 19 19 20 20 19 18 19 18 18 19 18 18 19 19 19 21 20 18 17 16 16 15 15 15 14 14 13 13 13 12 12 12 12 13 13 13
19 19 18 19 21 20 19 18 19 20 21 22 20 19 20 18 17 18 19 20 21 19 20 21 21 19 19 18 17 17 17 16 16 15 15 15 15 15 15 14 14 14 15 16
22 22 19 19 20 19 18 18 20 21 21 20 20 22 22 22 22 22 22 22 22 22 21 22 22 21 20 20 19 18 18 18 18 18 18 18 17 17 17 17 17 17 17 18
23 23 22 21 20 22 21 20 20 22 23 22 22 24 23 20 22 22 22 24 24 24 23 22 23 24 22 22 21 21 20 20 20 20 20 20 19 19 19 19 19 19 19 20
25 24 23 21 20 21 23 22 21 22 23 23 24 26 24 21 22 23 25 28 27 27 26 25 25 25 24 24 24 23 23 22 22 22 22 21 21 21 21 21 21 21 21 22
27 26 24 22 21 20 21 22 22 23 24 25 25 25 25 24 24 26 28 28 28 28 28 28 28 26 26 26 26 26 25 25 24 24 24 23 23 23 23 23 23 23 23 23
29 28 27 26 24 23 22 23 23 24 25 26 26 27 28 28 27 29 31 31 30 29 29 29 29 29 29 29 28 28 28 28 27 27 27 26 26 26 26 25 25 25 26 26
29 30 29 29 27 26 26 24 26 26 25 27 28 29 30 31 30 31 33 34 33 32 31 31 30 30 30 31 31 30 30 30 30 29 29 29 28 28 28 28 27 27 28 28
30 30 31 29 27 28 29 26 25 26 26 26 28 30 31 32 30 31 33 35 36 33 32 32 32 31 31 32 33 32 32 32 32 32 32 31 30 30 29 29 30 30 30 29
31 30 29 28 27 28 27 26 26 27 26 27 29 31 32 33 33 33 35 36 35 35 34 33 33 33 33 34 34 34 34 35 34 34 34 34 33 32 32 32 31 31 32 31
31 30 30 28 27 27 26 27 27 28 29 30 31 31 32 33 33 34 36 36 35 35 34 34 34 35 35 36 36 37 37 36 36 36 36 35 34 34 34 33 33 34 33 33
30 30 29 29 27 27 27 29 28 28 30 31 32 32 32 32 33 34 36 36 35 35 35 35 35 35 36 36 37 38 38 38 37 37 36 35 34 35 35 34 35 35 35 35
28 29 29 29 29 27 29 29 29 29 31 32 33 33 34 34 34 36 37 36 36 35 35 35 35 35 36 37 38 38 38 38 38 37 36 36 36 36 36 36 36 36 37 37
27 28 28 28 28 28 31 32 32 32 33 34 34 33 34 34 34 35 36 36 36 36 35 36 36 36 37 37 38 38 38 38 38 38 38 38 38 38 38 38 38 38 38 38
27 26 26 28 29 31 32 34 34 34 34 35 35 35 34 34 34 35 36 36 36 37 37 37 37 38 38 38 39 39 38 38 38 39 39 40 40 40 40 40 39 39 39 40
28 28 29 31 32 32 34 35 34 34 35 36 36 36 35 35 35 36 36 36 37 38 37 38 38 38 38 39 39 40 40 40 39 40 41 41 41 41 41 41 41 41 41 41
28 29 30 31 32 33 35 35 34 35 36 36 36 36 36 36 36 38 36 35 36 37 36 37 37 38 38 38 38 39 39 39 39 39 40 41 41 42 41 41 41 41 41 41
29 29 30 30 31 32 32 32 33 34 34 34 34 35 37 36 35 33 33 35 35 35 36 37 37 37 37 38 37 37 37 38 38 38 39 39 38 39 40 40 40 39 39 40

GEFSCGP_500_meanwind_252.txt.gz
Wind_Speed
13 13 12 11 11 10 9 7 6 6 6 6 6 8 8 9 9 10 11 11 10 10 9 9 10 10 9 8 8 7 6 6 5 4 4 4 3 3 3 3 3 4 5 6
12 12 13 13 12 12 10 10 9 8 9 10 9 9 10 11 10 10 10 9 8 10 9 8 9 9 9 8 7 7 6 5 4 4 3 3 2 2 2 2 3 3 4 5
12 11 12 12 12 12 12 13 12 11 11 11 12 12 12 12 12 12 12 11 9 11 11 10 8 8 8 8 7 6 6 5 4 4 3 3 2 0 1 2 2 3 4 5
13 13 13 13 13 12 12 12 13 13 13 13 13 15 13 13 14 13 14 13 11 11 12 10 7 7 8 7 7 6 5 6 5 4 4 3 3 3 2 2 3 3 4 5
13 13 13 14 13 13 14 14 14 14 15 16 16 17 15 15 16 15 14 13 11 12 11 9 8 7 7 7 6 5 5 5 5 5 4 3 2 2 3 4 4 4 4 5
13 13 13 13 13 14 15 16 17 17 18 17 16 18 18 17 17 17 14 12 12 12 11 10 9 9 7 7 7 6 5 6 5 5 5 4 4 3 3 4 4 5 6 5
13 14 14 15 14 14 16 17 18 18 17 16 16 18 18 17 17 19 16 13 13 13 13 12 11 11 9 8 8 7 6 6 6 6 6 6 5 5 5 6 6 6 6 7
14 13 14 15 15 15 17 18 18 18 17 17 18 19 17 17 17 18 17 15 14 14 14 13 12 11 10 9 9 8 8 8 8 8 7 7 7 7 7 8 8 8 9 9
15 14 14 15 16 17 17 18 18 19 20 20 20 20 17 17 16 16 16 15 14 15 15 14 14 14 12 12 11 11 10 10 10 9 9 9 9 9 9 9 9 9 10 10
17 16 16 16 16 17 18 18 19 21 22 23 22 20 16 16 16 16 16 15 15 15 15 15 15 14 12 12 13 12 11 11 11 11 11 11 11 11 11 11 11 11 11 12
18 18 18 17 17 17 18 20 21 21 22 24 23 21 18 17 18 19 18 18 16 16 17 16 15 15 14 13 14 14 13 13 13 13 13 13 13 12 13 13 14 14 14 14
21 21 21 20 18 19 20 21 22 23 23 23 24 22 20 20 20 20 20 19 18 18 17 16 15 15 16 16 16 15 14 15 15 16 16 16 16 15 15 15 16 17 17 17
23 24 23 22 21 21 21 22 23 24 25 25 26 25 22 22 22 22 22 21 20 19 18 18 18 18 18 18 18 18 18 18 18 19 18 18 18 18 18 18 19 19 19 20
26 27 26 25 23 24 24 24 25 27 28 27 27 27 26 25 25 25 24 23 23 21 21 20 20 20 21 22 22 22 22 22 22 22 21 21 21 21 21 21 21 22 22 22
28 29 29 28 26 26 26 25 26 27 28 28 28 28 27 26 27 27 26 25 23 23 24 24 24 23 23 23 24 24 24 25 25 24 24 24 24 24 24 23 24 24 24 24
28 29 29 29 29 28 28 26 26 28 29 29 28 28 27 26 26 27 27 26 25 26 27 27 26 26 26 26 26 26 26 26 26 27 27 27 27 27 27 26 26 26 26 26
30 29 29 29 30 29 29 28 28 29 30 30 29 28 28 28 28 29 28 28 28 28 28 28 28 29 29 30 29 29 29 29 29 29 29 30 30 30 29 28 29 28 29 29
31 31 30 29 29 31 29 30 30 30 31 31 31 30 30 29 29 29 29 30 30 30 31 31 31 31 31 31 31 32 32 32 32 32 31 32 31 31 32 32 31 31 31 31
32 32 32 31 30 31 30 30 30 31 32 32 32 32 32 32 32 32 31 32 31 31 32 32 32 32 32 32 33 34 34 34 34 34 33 33 33 33 33 33 33 33 33 32
33 33 33 33 32 31 30 30 31 32 33 33 32 33 33 33 33 32 33 33 32 32 32 33 33 33 33 34 34 34 34 34 34 34 34 35 34 34 34 34 34 34 33 33
33 33 34 34 34 33 32 30 30 31 31 31 32 32 33 34 33 33 33 33 33 33 33 33 34 34 34 34 35 35 35 34 34 34 35 35 35 35 35 35 36 36 35 35
33 34 35 35 35 34 32 31 31 31 30 31 31 32 33 34 34 33 33 33 34 34 34 35 34 34 34 34 35 35 34 34 34 34 34 35 36 37 37 37 37 37 36 37
33 33 34 35 34 33 32 31 30 30 30 31 31 32 33 34 34 34 34 34 34 34 34 34 34 34 33 34 34 34 35 34 35 35 35 36 36 37 38 38 37 37 36 36
33 33 33 33 33 33 31 31 30 31 31 32 32 32 33 34 35 35 35 34 33 33 33 34 34 34 35 35 34 33 34 34 34 34 34 34 35 36 36 37 38 37 37 37
32 32 33 32 32 32 31 31 31 32 32 32 33 34 34 34 33 33 34 35 35 34 33 34 35 34 33 33 32 32 32 34 34 34 35 35 35 35 36 36 37 37 37 37
31 31 31 31 32 33 33 32 32 32 32 32 32 32 33 34 34 35 35 35 34 34 34 34 33 33 33 33 33 32 33 34 34 34 34 34 34 35 35 35 35 36 37 37

GEFSCGP_500_meanwind_258.txt.gz
Wind_Speed
14 14 13 13 13 13 13 12 10 9 9 8 7 6 4 4 5 5 5 7 7 8 8 8 8 8 7 7 5 4 2 1 1 1 1 1 1 2 3 3 4 5 6 7
14 14 15 16 15 15 15 14 12 12 12 11 10 9 7 6 6 6 6 6 6 6 6 7 7 7 6 6 5 4 3 2 1 2 1 1 2 3 3 3 4 6 7 7
15 15 16 17 17 17 17 16 15 14 14 14 13 11 10 8 8 8 8 8 7 6 5 6 6 7 6 6 5 4 3 2 2 3 3 2 3 3 4 5 5 6 7 8
17 17 17 18 18 18 17 17 17 16 16 16 16 15 12 11 11 10 10 9 9 8 7 6 7 7 7 5 4 4 3 2 3 3 3 3 4 5 5 5 5 7 8 8
17 18 18 18 18 18 18 18 18 17 17 17 17 17 14 14 13 12 12 11 11 10 8 8 8 8 8 5 4 4 4 3 3 3 4 4 5 5 6 6 6 7 9 9
18 19 18 17 18 18 18 19 19 20 19 19 18 19 16 15 15 14 14 13 12 11 10 10 9 9 9 7 6 5 4 4 4 4 4 5 5 6 7 8 8 9 9 10
19 19 18 18 19 18 19 19 20 21 21 21 19 20 18 17 16 15 14 14 13 12 11 10 11 9 9 9 7 6 6 6 6 6 6 7 7 7 8 9 10 11 11 12
19 19 19 19 19 19 20 20 21 22 22 21 21 20 18 17 16 14 14 14 13 12 11 12 11 10 10 10 9 8 9 9 9 9 9 9 10 10 10 10 11 11 12 13
20 19 19 19 20 20 20 21 21 23 23 23 22 19 18 17 16 15 15 14 13 12 13 13 13 13 13 13 12 10 11 11 11 11 11 11 11 11 11 12 13 13 14 14
20 19 20 20 21 21 21 21 21 22 23 22 22 19 17 16 16 16 16 14 14 13 13 14 14 14 14 14 14 12 13 12 12 12 13 13 13 13 13 14 14 14 14 15
22 21 21 22 22 22 22 22 23 23 23 23 22 19 17 17 16 16 15 13 13 14 13 15 15 15 15 15 16 16 15 14 14 14 15 15 15 15 15 16 16 16 17 17
22 22 22 22 23 23 23 23 24 24 24 23 22 19 17 18 17 17 15 14 14 13 14 16 17 16 16 17 17 18 17 16 16 17 17 17 18 18 18 19 19 20 20 20
23 24 23 24 24 24 25 25 25 24 24 24 23 21 19 19 18 18 17 17 16 16 16 17 19 19 19 19 19 19 19 19 18 19 19 20 20 20 21 21 22 22 22 22
27 27 27 26 25 25 26 26 26 26 26 26 25 23 21 21 20 20 20 19 19 19 18 19 20 20 20 20 20 20 20 21 20 20 22 22 23 23 25 25 25 25 25 25
29 29 29 28 27 27 28 28 28 27 27 27 26 25 23 23 22 21 21 20 21 21 21 21 22 22 22 22 22 22 22 23 23 23 24 24 25 26 26 26 27 28 28 28
31 31 30 29 29 30 30 30 29 29 29 29 29 27 26 25 24 23 23 22 22 23 24 24 24 24 23 24 24 24 25 25 25 26 26 26 27 27 27 27 28 29 29 29
32 32 31 31 31 31 32 31 30 30 31 31 30 28 27 26 25 24 24 24 24 24 25 26 26 26 27 27 26 26 27 27 27 27 28 28 28 28 29 29 29 29 29 28
33 33 33 32 32 34 31 31 30 30 31 31 32 31 29 27 26 26 26 26 26 26 26 27 27 28 29 30 29 28 29 29 30 30 30 30 30 30 30 30 30 30 29 28
34 34 34 34 35 35 33 32 31 31 32 32 32 32 31 30 29 29 29 29 29 28 28 29 30 31 31 32 31 30 31 31 32 32 32 32 32 32 32 32 32 31 30 30
34 34 35 35 35 36 34 32 31 31 31 31 32 32 32 32 32 31 31 31 31 29 29 30 31 32 33 33 33 33 33 33 34 33 33 32 32 33 33 34 33 33 32 32
33 34 35 36 36 35 34 33 32 31 30 30 31 31 32 32 32 32 32 32 32 32 32 32 32 32 33 33 34 33 33 33 34 34 33 33 34 34 34 34 34 34 34 34
34 34 35 36 36 35 33 33 32 31 30 31 30 31 31 32 33 33 33 33 33 33 33 34 34 34 34 35 35 34 33 33 33 33 33 33 34 34 33 33 33 33 33 34
34 34 35 35 35 34 33 32 32 32 31 31 31 31 32 32 32 33 33 33 34 34 34 34 34 34 34 35 35 34 34 34 33 33 33 33 33 34 34 34 33 33 34 35
34 34 34 34 34 33 33 32 32 32 32 32 32 33 33 33 33 33 33 33 34 33 34 34 34 35 34 34 35 35 34 34 34 33 32 33 33 33 33 34 35 36 36 36
34 34 34 33 33 33 32 32 32 32 32 33 34 34 33 32 32 32 32 32 32 32 32 33 33 34 35 35 34 34 34 33 33 33 33 33 33 33 33 34 35 36 35 36
32 33 33 32 31 31 31 32 32 32 32 32 33 34 33 32 31 31 31 31 31 32 32 32 33 33 34 34 34 34 34 34 33 33 33 32 32 33 34 34 35 35 34 34

GEFSCGP_500_meanwind_264.txt.gz
Wind_Speed
10 10 11 11 10 10 10 8 8 9 8 7 6 5 5 6 6 5 5 5 5 6 7 7 7 7 7 6 6 5 5 4 3 2 3 4 4 5 7 7 7 7 7 8
12 12 12 12 12 11 11 10 10 10 10 9 8 8 8 8 8 8 8 8 7 7 8 8 7 7 7 7 6 6 6 5 5 3 3 4 4 5 7 7 7 8 8 8
13 14 14 13 12 11 11 11 12 13 12 12 11 11 11 10 10 9 10 10 10 9 9 8 7 7 8 8 7 7 7 7 6 6 4 4 5 6 7 7 8 9 9 9
15 15 14 13 12 11 13 13 13 14 13 13 12 12 13 12 11 11 11 12 12 11 11 10 9 9 9 9 8 8 8 7 7 7 7 6 6 6 7 8 9 10 10 10
16 16 15 15 14 13 14 14 15 15 15 15 15 14 14 14 13 12 12 12 12 12 12 11 10 10 10 9 9 9 9 8 7 8 8 7 7 7 7 8 8 9 9 10
17 16 16 16 16 15 15 15 15 15 15 16 15 15 15 16 14 13 13 13 13 14 14 13 12 11 11 11 10 10 9 8 8 8 9 9 8 9 8 8 9 9 10 11
17 17 18 17 17 17 16 15 14 14 14 16 16 16 17 16 15 14 14 14 14 14 15 15 13 12 11 11 11 11 10 9 9 9 10 10 10 10 9 9 10 11 12 13
18 19 19 18 18 18 17 16 15 15 14 15 17 16 16 15 15 15 15 15 15 14 14 15 15 14 12 12 12 12 11 11 10 10 10 11 11 11 11 11 12 13 13 14
19 20 20 19 19 19 19 18 17 17 16 15 16 16 15 14 14 14 15 15 16 14 14 14 14 14 14 13 13 12 12 12 12 13 13 12 12 12 13 14 14 14 14 15
21 21 21 20 20 21 20 19 19 17 16 15 16 16 15 15 15 15 15 15 15 15 14 15 15 14 14 14 15 15 14 14 15 15 15 14 14 14 15 16 17 17 16 16
22 21 21 22 21 22 22 21 20 19 18 16 15 16 16 16 15 15 15 15 15 14 14 14 15 15 15 16 16 16 16 17 17 17 17 17 17 17 18 18 19 19 19 19
22 21 21 22 23 23 23 22 21 20 20 19 17 17 18 16 16 16 16 16 16 16 15 15 15 16 16 17 17 18 18 19 19 19 19 19 20 20 20 20 20 21 21 21
24 23 22 21 23 24 23 23 23 22 21 21 19 18 19 17 17 17 17 17 17 17 17 16 16 17 18 18 19 19 20 20 21 21 21 21 21 22 22 22 22 23 23 24
25 24 23 21 22 24 24 23 23 22 22 22 22 21 21 20 19 18 18 18 18 17 17 17 17 18 19 20 20 20 21 21 22 22 23 23 23 24 24 25 25 26 26 26
27 27 26 26 26 26 26 25 25 25 25 25 25 24 24 23 22 20 20 19 20 19 19 19 19 20 20 21 22 22 23 23 23 24 25 25 25 26 26 26 27 27 27 27
29 29 28 28 28 28 28 28 28 27 28 28 28 27 27 25 25 23 22 21 22 22 22 22 22 23 23 24 24 24 24 25 25 25 25 26 26 27 27 28 28 28 28 28
30 30 29 28 28 29 30 29 29 29 29 29 29 29 28 27 26 25 25 24 23 23 24 25 25 26 26 27 27 26 27 27 27 27 27 27 28 28 28 29 29 30 30 30
31 31 30 29 29 31 29 29 29 30 30 30 30 30 29 28 28 27 26 26 26 26 26 27 27 28 28 29 29 28 28 29 29 29 28 29 29 30 31 31 31 31 31 31
31 31 31 30 30 31 31 30 30 30 31 30 30 29 29 28 28 28 28 27 27 27 28 28 28 29 29 30 30 30 30 30 30 30 30 30 31 32 32 32 32 32 32 32
30 31 31 32 31 30 31 31 30 30 31 30 30 30 29 29 29 29 29 29 29 29 29 29 30 30 30 30 31 32 32 31 32 32 32 33 33 33 33 33 33 33 33 33
29 30 31 31 32 31 33 32 31 30 30 30 30 30 30 30 31 30 30 30 30 30 30 30 31 31 31 31 32 33 33 33 34 34 34 34 34 34 34 34 33 33 33 34
29 30 30 31 31 32 34 32 31 31 31 30 30 30 30 31 31 31 31 31 31 31 31 31 32 32 33 33 34 34 34 34 34 34 34 34 34 34 34 34 34 34 34 34
31 31 31 31 31 32 32 31 31 31 31 30 30 30 30 30 30 31 31 31 32 32 32 32 33 33 34 35 35 35 34 35 34 33 33 33 33 33 33 33 33 33 33 33
31 31 31 31 32 32 32 31 31 31 31 30 30 30 30 30 30 31 31 31 32 32 32 33 33 33 34 35 35 35 35 35 35 34 33 33 33 32 32 32 32 33 33 33
32 31 31 31 31 31 31 31 31 31 31 30 29 29 29 29 29 30 31 31 31 31 32 32 33 33 33 34 34 35 35 35 35 34 33 33 32 32 32 32 31 32 32 32
31 30 30 30 30 31 31 31 31 31 31 30 29 29 28 28 29 29 30 31 31 31 32 32 33 34 33 33 33 33 33 34 33 33 33 33 32 31 31 31 31 31 31 31